DAL2201 KGPI-KSLC

Flight info

Callsign DAL2201
Flight time 1h 12m
Altitude 35000
Route RIDDG2 MSO PIH SKEES6
Aircraft A319/M-SDE3FGHIRWY/LB1

Departure

Time 2026-05-05 12:21
Airport Glacier Park International Airport (KGPI)

Arrival

Time 2026-05-05 13:34
Airport Salt Lake City International Airport (KSLC)
Time Latitude Longitude Altitude Speed Heading
2026-05-05 12:06 48.30843 -114.25307 2968 ft 0 kts 125°
2026-05-05 12:11 48.30849 -114.25320 2968 ft 2 kts 125°
2026-05-05 12:11 48.30858 -114.25338 2968 ft 2 kts 125°
2026-05-05 12:11 48.30867 -114.25356 2968 ft 2 kts 151°
2026-05-05 12:12 48.30882 -114.25361 2968 ft 2 kts 191°
2026-05-05 12:12 48.30890 -114.25356 2968 ft 1 kts 213°
2026-05-05 12:12 48.30896 -114.25349 2968 ft 0 kts 216°
2026-05-05 12:15 48.30896 -114.25350 2968 ft 0 kts 216°
2026-05-05 12:15 48.30888 -114.25358 2968 ft 2 kts 216°
2026-05-05 12:16 48.30864 -114.25383 2968 ft 6 kts 215°
2026-05-05 12:16 48.30813 -114.25437 2968 ft 9 kts 217°
2026-05-05 12:16 48.30811 -114.25505 2968 ft 8 kts 302°
2026-05-05 12:16 48.30813 -114.25584 2968 ft 8 kts 225°
2026-05-05 12:17 48.30758 -114.25645 2968 ft 10 kts 214°
2026-05-05 12:17 48.30685 -114.25721 2965 ft 14 kts 216°
2026-05-05 12:17 48.30602 -114.25809 2965 ft 15 kts 215°
2026-05-05 12:17 48.30508 -114.25907 2965 ft 16 kts 215°
2026-05-05 12:18 48.30412 -114.26008 2965 ft 17 kts 215°
2026-05-05 12:18 48.30310 -114.26115 2965 ft 18 kts 214°
2026-05-05 12:18 48.30200 -114.26228 2962 ft 20 kts 215°
2026-05-05 12:18 48.30083 -114.26350 2962 ft 20 kts 214°
2026-05-05 12:19 48.29965 -114.26469 2962 ft 17 kts 216°
2026-05-05 12:19 48.29876 -114.26565 2962 ft 13 kts 216°
2026-05-05 12:19 48.29844 -114.26632 2962 ft 3 kts 266°
2026-05-05 12:19 48.29861 -114.26692 2962 ft 7 kts 300°
2026-05-05 12:20 48.29899 -114.26739 2962 ft 7 kts
2026-05-05 12:20 48.29935 -114.26712 2962 ft 0 kts 37°
2026-05-05 12:20 48.29944 -114.26703 2962 ft 14 kts 37°
2026-05-05 12:21 48.30256 -114.26372 2962 ft 90 kts 36°
2026-05-05 12:21 48.30953 -114.25648 2984 ft 148 kts 34°
2026-05-05 12:21 48.31820 -114.24758 3574 ft 151 kts 34°
2026-05-05 12:21 48.32701 -114.23869 4243 ft 157 kts 34°
2026-05-05 12:22 48.33605 -114.22951 4900 ft 163 kts 34°
2026-05-05 12:22 48.34615 -114.21922 5414 ft 181 kts 34°
2026-05-05 12:22 48.35741 -114.20957 6046 ft 192 kts 14°
2026-05-05 12:22 48.37068 -114.21147 6776 ft 200 kts 338°
2026-05-05 12:23 48.38099 -114.22589 7505 ft 212 kts 303°
2026-05-05 12:23 48.38589 -114.24773 8079 ft 230 kts 289°
2026-05-05 12:23 48.39158 -114.27070 8673 ft 238 kts 302°
2026-05-05 12:23 48.39975 -114.29310 9267 ft 251 kts 308°
2026-05-05 12:24 48.41010 -114.31504 10026 ft 258 kts 311°
2026-05-05 12:24 48.42077 -114.33688 10940 ft 261 kts 310°
2026-05-05 12:24 48.43082 -114.35978 11917 ft 263 kts 300°
2026-05-05 12:24 48.43449 -114.38678 12815 ft 275 kts 272°
2026-05-05 12:25 48.42938 -114.41462 13529 ft 294 kts 247°
2026-05-05 12:25 48.41655 -114.44038 13965 ft 317 kts 236°
2026-05-05 12:25 48.40199 -114.46601 14359 ft 335 kts 236°
2026-05-05 12:25 48.38676 -114.49289 14952 ft 344 kts 236°
2026-05-05 12:26 48.36952 -114.51855 15651 ft 358 kts 219°
2026-05-05 12:26 48.35016 -114.53149 16227 ft 372 kts 197°
2026-05-05 12:26 48.32394 -114.53494 16935 ft 380 kts 184°
2026-05-05 12:26 48.29648 -114.53497 17578 ft 387 kts 182°
2026-05-05 12:27 48.26956 -114.53500 18189 ft 392 kts 183°
2026-05-05 12:27 48.24230 -114.53818 18803 ft 392 kts 198°
2026-05-05 12:27 48.21804 -114.55519 19351 ft 382 kts 225°
2026-05-05 12:27 48.19994 -114.58350 19960 ft 374 kts 240°
2026-05-05 12:28 48.18400 -114.61445 20515 ft 379 kts 241°
2026-05-05 12:28 48.16749 -114.64619 21074 ft 386 kts 239°
2026-05-05 12:28 48.14762 -114.67481 21530 ft 409 kts 218°
2026-05-05 12:28 48.12183 -114.69081 22009 ft 428 kts 194°
2026-05-05 12:29 48.09178 -114.69171 22528 ft 436 kts 169°
2026-05-05 12:29 48.06275 -114.67866 23059 ft 437 kts 155°
2026-05-05 12:29 48.03463 -114.66081 23545 ft 442 kts 153°
2026-05-05 12:29 48.00641 -114.64276 24039 ft 448 kts 153°
2026-05-05 12:30 47.97765 -114.62549 24516 ft 453 kts 155°
2026-05-05 12:30 47.94807 -114.60887 25006 ft 458 kts 156°
2026-05-05 12:30 47.91779 -114.59259 25508 ft 462 kts 157°
2026-05-05 12:30 47.88869 -114.57736 25956 ft 467 kts 157°
2026-05-05 12:31 47.85815 -114.56161 26387 ft 471 kts 157°
2026-05-05 12:31 47.82712 -114.54565 26761 ft 476 kts 157°
2026-05-05 12:31 47.79561 -114.52955 27153 ft 481 kts 157°
2026-05-05 12:31 47.76412 -114.51346 27532 ft 485 kts 157°
2026-05-05 12:32 47.73215 -114.49715 27934 ft 488 kts 157°
2026-05-05 12:32 47.70006 -114.48080 28334 ft 492 kts 156°
2026-05-05 12:32 47.66768 -114.46435 28707 ft 495 kts 157°
2026-05-05 12:32 47.63497 -114.44771 29086 ft 498 kts 156°
2026-05-05 12:33 47.60209 -114.43098 29465 ft 501 kts 156°
2026-05-05 12:33 47.56918 -114.41430 29916 ft 502 kts 156°
2026-05-05 12:33 47.53620 -114.39763 30430 ft 501 kts 156°
2026-05-05 12:33 47.50264 -114.38069 30962 ft 500 kts 156°
2026-05-05 12:34 47.46924 -114.36383 31486 ft 499 kts 156°
2026-05-05 12:34 47.43630 -114.34716 31960 ft 499 kts 157°
2026-05-05 12:34 47.40255 -114.33015 32403 ft 500 kts 156°
2026-05-05 12:34 47.36940 -114.31348 32862 ft 499 kts 156°
2026-05-05 12:35 47.33650 -114.29691 33315 ft 498 kts 157°
2026-05-05 12:35 47.30296 -114.28006 33702 ft 499 kts 156°
2026-05-05 12:35 47.27012 -114.26361 34027 ft 501 kts 156°
2026-05-05 12:35 47.23990 -114.24846 34291 ft 504 kts 156°
2026-05-05 12:36 47.20709 -114.23206 34569 ft 505 kts 156°
2026-05-05 12:36 47.17356 -114.21530 34875 ft 506 kts 156°
2026-05-05 12:36 47.14031 -114.19871 35069 ft 507 kts 156°
2026-05-05 12:36 47.10720 -114.18224 35069 ft 507 kts 156°
2026-05-05 12:37 47.04040 -114.14908 35056 ft 506 kts 156°
2026-05-05 12:37 46.97598 -114.11713 35031 ft 506 kts 156°
2026-05-05 12:38 46.91028 -114.08495 35025 ft 507 kts 158°
2026-05-05 12:38 46.84195 -114.05778 35021 ft 509 kts 161°
2026-05-05 12:39 46.77302 -114.03188 35024 ft 509 kts 161°
2026-05-05 12:39 46.70401 -114.00593 35048 ft 508 kts 161°
2026-05-05 12:40 46.63528 -113.98001 35063 ft 507 kts 161°
2026-05-05 12:40 46.56641 -113.95403 35068 ft 508 kts 161°
2026-05-05 12:41 46.49742 -113.92811 35068 ft 507 kts 161°
2026-05-05 12:41 46.42816 -113.90212 35066 ft 506 kts 161°
2026-05-05 12:42 46.35998 -113.87661 35053 ft 507 kts 161°
2026-05-05 12:42 46.29041 -113.85067 35045 ft 505 kts 161°
2026-05-05 12:43 46.22512 -113.82636 35034 ft 506 kts 161°
2026-05-05 12:43 46.15655 -113.80091 35037 ft 505 kts 161°
2026-05-05 12:44 46.08728 -113.77524 35035 ft 505 kts 161°
2026-05-05 12:44 46.01802 -113.74969 35039 ft 504 kts 161°
2026-05-05 12:45 45.94987 -113.72456 35043 ft 505 kts 161°
2026-05-05 12:45 45.88799 -113.70180 35039 ft 504 kts 161°
2026-05-05 12:46 45.81864 -113.67641 35045 ft 503 kts 161°
2026-05-05 12:46 45.75205 -113.65205 35038 ft 502 kts 161°
2026-05-05 12:47 45.68411 -113.62727 35032 ft 501 kts 161°
2026-05-05 12:47 45.61705 -113.60288 35029 ft 499 kts 161°
2026-05-05 12:48 45.54917 -113.57824 35032 ft 498 kts 161°
2026-05-05 12:48 45.48157 -113.55373 35030 ft 498 kts 161°
2026-05-05 12:49 45.41451 -113.52954 35026 ft 497 kts 161°
2026-05-05 12:49 45.34669 -113.50513 35018 ft 496 kts 161°
2026-05-05 12:50 45.27888 -113.48074 35017 ft 496 kts 161°
2026-05-05 12:50 45.21127 -113.45650 35018 ft 495 kts 161°
2026-05-05 12:51 45.14341 -113.43224 35011 ft 494 kts 161°
2026-05-05 12:51 45.07531 -113.40795 35006 ft 493 kts 161°
2026-05-05 12:52 45.00867 -113.38422 35009 ft 493 kts 161°
2026-05-05 12:52 44.94067 -113.36008 35002 ft 492 kts 162°
2026-05-05 12:53 44.87496 -113.33683 34990 ft 491 kts 162°
2026-05-05 12:53 44.80919 -113.31361 34993 ft 491 kts 162°
2026-05-05 12:54 44.70802 -113.27795 34987 ft 489 kts 162°
2026-05-05 12:55 44.64066 -113.25429 34988 ft 489 kts 162°
2026-05-05 12:55 44.57357 -113.23080 34988 ft 488 kts 162°
2026-05-05 12:56 44.50681 -113.20750 34982 ft 487 kts 163°
2026-05-05 12:56 44.44053 -113.18436 34977 ft 486 kts 162°
2026-05-05 12:57 44.37503 -113.16155 34981 ft 485 kts 163°
2026-05-05 12:57 44.30927 -113.13873 34980 ft 484 kts 163°
2026-05-05 12:58 44.24363 -113.11603 34977 ft 483 kts 162°
2026-05-05 12:58 44.17835 -113.09346 34973 ft 482 kts 163°
2026-05-05 12:59 44.11301 -113.07093 34984 ft 481 kts 163°
2026-05-05 12:59 44.04816 -113.04864 34985 ft 480 kts 162°
2026-05-05 13:00 43.94881 -113.01457 34981 ft 479 kts 163°
2026-05-05 13:01 43.81844 -112.97005 34959 ft 476 kts 163°
2026-05-05 13:01 43.75290 -112.94769 34964 ft 477 kts 163°
2026-05-05 13:02 43.68782 -112.92564 34965 ft 476 kts 163°
2026-05-05 13:02 43.62269 -112.90357 34959 ft 475 kts 163°
2026-05-05 13:03 43.55719 -112.88140 34956 ft 475 kts 163°
2026-05-05 13:03 43.49241 -112.85957 34956 ft 473 kts 163°
2026-05-05 13:04 43.42740 -112.83768 34954 ft 472 kts 163°
2026-05-05 13:04 43.36266 -112.81596 34946 ft 471 kts 163°
2026-05-05 13:05 43.29765 -112.79414 34945 ft 470 kts 163°
2026-05-05 13:05 43.23316 -112.77260 34939 ft 469 kts 163°
2026-05-05 13:06 43.16847 -112.75101 34936 ft 468 kts 163°
2026-05-05 13:06 43.10466 -112.72974 34931 ft 468 kts 163°
2026-05-05 13:07 43.04095 -112.70863 34929 ft 467 kts 163°
2026-05-05 13:07 42.97850 -112.68790 34916 ft 466 kts 163°
2026-05-05 13:08 42.91667 -112.66746 34906 ft 463 kts 163°
2026-05-05 13:08 42.85323 -112.64671 34903 ft 463 kts 165°
2026-05-05 13:09 42.78984 -112.62753 34905 ft 464 kts 165°
2026-05-05 13:09 42.75769 -112.61794 34695 ft 463 kts 165°
2026-05-05 13:09 42.72568 -112.60834 34470 ft 460 kts 165°
2026-05-05 13:10 42.69369 -112.59872 34245 ft 458 kts 165°
2026-05-05 13:10 42.66237 -112.58932 34010 ft 457 kts 165°
2026-05-05 13:10 42.63107 -112.57990 33751 ft 455 kts 165°
2026-05-05 13:10 42.59959 -112.57044 33436 ft 453 kts 165°
2026-05-05 13:11 42.56854 -112.56110 33054 ft 452 kts 165°
2026-05-05 13:11 42.53750 -112.55175 32551 ft 452 kts 165°
2026-05-05 13:11 42.50675 -112.54252 31999 ft 452 kts 165°
2026-05-05 13:11 42.47515 -112.53307 31423 ft 452 kts 166°
2026-05-05 13:12 42.44410 -112.52374 30861 ft 451 kts 166°
2026-05-05 13:12 42.41316 -112.51450 30300 ft 451 kts 166°
2026-05-05 13:12 42.38182 -112.50517 29696 ft 449 kts 166°
2026-05-05 13:12 42.35101 -112.49601 29126 ft 447 kts 167°
2026-05-05 13:13 42.31995 -112.48680 28685 ft 441 kts 167°
2026-05-05 13:13 42.28969 -112.47784 28309 ft 436 kts 167°
2026-05-05 13:13 42.25994 -112.46900 27934 ft 432 kts 167°
2026-05-05 13:13 42.23040 -112.46033 27555 ft 428 kts 168°
2026-05-05 13:14 42.20058 -112.45435 27176 ft 424 kts 174°
2026-05-05 13:14 42.17135 -112.45249 26766 ft 422 kts 181°
2026-05-05 13:14 42.14188 -112.45366 26326 ft 417 kts 183°
2026-05-05 13:14 42.11251 -112.45546 25953 ft 412 kts 183°
2026-05-05 13:15 42.08391 -112.45728 25562 ft 408 kts 183°
2026-05-05 13:15 42.05553 -112.45902 25166 ft 404 kts 183°
2026-05-05 13:15 42.02710 -112.46071 24782 ft 399 kts 183°
2026-05-05 13:15 42.00033 -112.46225 24419 ft 395 kts 183°
2026-05-05 13:16 41.97242 -112.46384 24047 ft 391 kts 183°
2026-05-05 13:16 41.94541 -112.46536 23685 ft 388 kts 183°
2026-05-05 13:16 41.91825 -112.46690 23313 ft 385 kts 182°
2026-05-05 13:16 41.89281 -112.46834 22957 ft 382 kts 182°
2026-05-05 13:17 41.86603 -112.46984 22581 ft 380 kts 182°
2026-05-05 13:17 41.83991 -112.47129 22212 ft 377 kts 182°
2026-05-05 13:17 41.81403 -112.47272 21844 ft 375 kts 182°
2026-05-05 13:17 41.78773 -112.47419 21462 ft 372 kts 182°
2026-05-05 13:18 41.76189 -112.47562 21090 ft 370 kts 182°
2026-05-05 13:18 41.73594 -112.47705 20687 ft 368 kts 182°
2026-05-05 13:18 41.71066 -112.47844 20252 ft 367 kts 181°
2026-05-05 13:18 41.68526 -112.47984 19861 ft 365 kts 181°
2026-05-05 13:19 41.65979 -112.48126 19491 ft 362 kts 181°
2026-05-05 13:19 41.63454 -112.48265 19131 ft 359 kts 181°
2026-05-05 13:19 41.60973 -112.48403 18785 ft 356 kts 181°
2026-05-05 13:19 41.58474 -112.48542 18438 ft 353 kts 181°
2026-05-05 13:20 41.56029 -112.48677 18102 ft 351 kts 180°
2026-05-05 13:20 41.53629 -112.48399 17737 ft 345 kts 161°
2026-05-05 13:20 41.51505 -112.47083 17362 ft 339 kts 141°
2026-05-05 13:20 41.49684 -112.45050 16967 ft 336 kts 135°
2026-05-05 13:21 41.47958 -112.42962 16610 ft 331 kts 135°
2026-05-05 13:21 41.46277 -112.40943 16239 ft 316 kts 135°
2026-05-05 13:21 41.44661 -112.38994 15888 ft 300 kts 133°
2026-05-05 13:21 41.43241 -112.37085 15541 ft 286 kts 130°
2026-05-05 13:22 41.41894 -112.35173 15217 ft 277 kts 129°
2026-05-05 13:22 41.40582 -112.33306 14927 ft 271 kts 130°
2026-05-05 13:22 41.39302 -112.31483 14668 ft 269 kts 130°
2026-05-05 13:22 41.38012 -112.29647 14394 ft 268 kts 130°
2026-05-05 13:23 41.36719 -112.27815 14123 ft 267 kts 130°
2026-05-05 13:23 41.35431 -112.25993 13863 ft 266 kts 130°
2026-05-05 13:23 41.34159 -112.24195 13610 ft 266 kts 130°
2026-05-05 13:23 41.32875 -112.22379 13333 ft 265 kts 131°
2026-05-05 13:24 41.31612 -112.20591 13029 ft 264 kts 131°
2026-05-05 13:24 41.30342 -112.18797 12735 ft 263 kts 131°
2026-05-05 13:24 41.29090 -112.17029 12474 ft 260 kts 131°
2026-05-05 13:24 41.27832 -112.15258 12241 ft 256 kts 131°
2026-05-05 13:25 41.26623 -112.13556 12019 ft 252 kts 131°
2026-05-05 13:25 41.25408 -112.11848 11791 ft 249 kts 132°
2026-05-05 13:25 41.24217 -112.10173 11571 ft 244 kts 132°
2026-05-05 13:25 41.23042 -112.08519 11359 ft 240 kts 132°
2026-05-05 13:26 41.21869 -112.06923 11132 ft 236 kts 137°
2026-05-05 13:26 41.20632 -112.05604 11098 ft 224 kts 145°
2026-05-05 13:26 41.19281 -112.04532 11053 ft 222 kts 153°
2026-05-05 13:26 41.17867 -112.03732 11029 ft 221 kts 160°
2026-05-05 13:27 41.16431 -112.02976 11018 ft 221 kts 156°
2026-05-05 13:27 41.15012 -112.02156 11016 ft 221 kts 160°
2026-05-05 13:27 41.13510 -112.01602 10986 ft 222 kts 169°
2026-05-05 13:27 41.11996 -112.01307 10694 ft 220 kts 174°
2026-05-05 13:28 41.10461 -112.01110 10396 ft 218 kts 175°
2026-05-05 13:28 41.08942 -112.00940 10070 ft 216 kts 176°
2026-05-05 13:28 41.07421 -112.00773 9721 ft 215 kts 176°
2026-05-05 13:28 41.05927 -112.00606 9394 ft 212 kts 176°
2026-05-05 13:29 41.04440 -112.00438 9090 ft 209 kts 176°
2026-05-05 13:29 41.02986 -112.00272 9025 ft 208 kts 176°
2026-05-05 13:29 41.01524 -112.00104 9021 ft 208 kts 176°
2026-05-05 13:29 41.00077 -111.99937 8987 ft 203 kts 175°
2026-05-05 13:30 40.98646 -111.99754 8495 ft 210 kts 174°
2026-05-05 13:30 40.97166 -111.99534 8020 ft 215 kts 174°
2026-05-05 13:30 40.95643 -111.99346 7572 ft 217 kts 175°
2026-05-05 13:30 40.94095 -111.99182 7090 ft 220 kts 175°
2026-05-05 13:31 40.92523 -111.99056 6559 ft 220 kts 176°
2026-05-05 13:31 40.91033 -111.98946 6226 ft 210 kts 175°
2026-05-05 13:31 40.89610 -111.98840 5808 ft 197 kts 176°
2026-05-05 13:31 40.88314 -111.98721 5709 ft 174 kts 173°
2026-05-05 13:32 40.87101 -111.98529 5823 ft 183 kts 172°
2026-05-05 13:32 40.85862 -111.98354 5680 ft 169 kts 174°
2026-05-05 13:32 40.84696 -111.98212 5280 ft 169 kts 172°
2026-05-05 13:32 40.83514 -111.98019 4903 ft 166 kts 173°
2026-05-05 13:33 40.82383 -111.97887 4585 ft 161 kts 173°
2026-05-05 13:33 40.81294 -111.97760 4337 ft 151 kts 173°
2026-05-05 13:33 40.80277 -111.97643 4209 ft 139 kts 173°
2026-05-05 13:33 40.79476 -111.97543 4208 ft 75 kts 176°
2026-05-05 13:34 40.79096 -111.97499 4208 ft 46 kts 174°
2026-05-05 13:34 40.78827 -111.97471 4208 ft 31 kts 173°
2026-05-05 13:34 40.78640 -111.97473 4208 ft 23 kts 193°
2026-05-05 13:34 40.78507 -111.97538 4208 ft 17 kts 209°
2026-05-05 13:35 40.78481 -111.97635 4207 ft 12 kts 327°
2026-05-05 13:35 40.78557 -111.97655 4207 ft 7 kts 351°
2026-05-05 13:35 40.78557 -111.97716 4207 ft 8 kts 239°
2026-05-05 13:35 40.78538 -111.97790 4207 ft 2 kts 265°
2026-05-05 13:36 40.78543 -111.97801 4207 ft 2 kts 314°
2026-05-05 13:36 40.78562 -111.97811 4207 ft 3 kts 349°
2026-05-05 13:36 40.78579 -111.97814 4207 ft 0 kts 352°